Regional Weather Roundup
Issued by NWS

Home | Current Version | Previous Version | Text Only | Print | Product List | Glossary Off
Versions: 1 2 3 4 5 6 7 8 9 10 11 12 13 14 15 16 17 18 19 20 21 22 23 24 25 26 27 28 29 30 31 32 33 34 35 36 37 38 39 40 41 42 43 44 45 46 47 48 49 50

000
ASUS43 KFSD 280710
RWRSD

WEATHER ROUNDUP FOR SOUTH DAKOTA
NATIONAL WEATHER SERVICE SIOUX FALLS SD
100 AM CST SAT FEB 28 2015

NOTE: "FAIR" INDICATES FEW OR NO CLOUDS BELOW 12,000 FEET WITH NO
SIGNIFICANT WEATHER AND/OR OBSTRUCTIONS TO VISIBILITY.


SDZ001>005-009-010-012>017-280800-
NORTHWEST AND NORTH CENTRAL SOUTH DAKOTA

CITY           SKY/WX    TMP DP  RH WIND       PRES   REMARKS
BUFFALO          N/A     12   7  80 W3        29.91S
FAITH            N/A     15   6  67 S14       30.04S WCI   0
MOBRIDGE       PTCLDY    11   0  61 SE10      30.13F WCI  -3
$$

SDZ012>016-024>037-041>051-057-063-072>074-280800-
SOUTHWEST AND SOUTH CENTRAL SOUTH DAKOTA

CITY           SKY/WX    TMP DP  RH WIND       PRES   REMARKS
RAPID CTY ARPT PTCLDY    11   6  81 SE9       30.01S WCI  -2
PIERRE         CLEAR     13   0  56 SE12      30.19F WCI  -1
CUSTER         CLEAR      3   0  87 W6        29.86S WCI  -8
ELLSWORTH AFB  PTCLDY    13   7  75 S8        29.98F WCI   2
PHILIP         CLEAR     11   4  73 SE6       30.11F WCI   1
PINE RIDGE     CLEAR     16   6  65 S12G23    30.04F WCI   3
WINNER         FAIR      16  -1  47 S17G25    30.21F WCI   0
$$

SDZ004>011-016>023-039-040-280800-
NORTHEAST SOUTH DAKOTA

CITY           SKY/WX    TMP DP  RH WIND       PRES   REMARKS
ABERDEEN       CLEAR      9   1  70 S17       30.30F WCI  -9
WATERTOWN      CLEAR      1  -4  79 S12       30.32F WCI -16
SISSETON         N/A      1  -4  79 SE7       30.34F WCI -12
$$

SDZ017-020-022-023-036>040-048>070-280800-
SOUTHEAST SOUTH DAKOTA

CITY           SKY/WX    TMP DP  RH WIND       PRES   REMARKS
SIOUX FALLS    CLEAR      5  -2  72 S9        30.41S WCI  -9
HURON          CLEAR      8   1  73 S13       30.33F WCI  -8
CHAMBERLAIN    CLEAR     11  -2  57 SE9G16    30.27S WCI  -2
MITCHELL       CLEAR      9   2  73 S12       30.36F WCI  -6
YANKTON        CLEAR      9   1  72 SE6       30.43S WCI  -1
$$

ABBREVIATIONS USED IN REMARKS
   TC - TEMPERATURE IN CELSIUS
  WCI - WIND CHILL INDEX
   HX - HEAT INDEX
  VSB - VISIBILITY




USA.gov is the U.S. government's official web portal to all federal, state and local government web resources and services.